YAOGAN 22

Satellite information

Favourite Embed

Satellite Type and Status

PAYLOADIN ORBIT

Key statistics

Satellite YAOGAN 22 at a glance.

Uptime

4021

Days in orbit

Revolutions

≈ 13.2

Per day

Orbit

SSO

Sun Synchronous Orbit

Inclination

100.7

Latest

Satellite identification and parameters

Extended collection of information and parameters for YAOGAN 22.

Object identification

Identified? True

Debris? False

Object name: YAOGAN 22

International designator: 2014-063A

Object number (NORAD): 40275

Object ID (CCSDS): 40275

Country: PEOPLES REPUBLIC OF CHINA (PRC)

Current information (Y/N): Y

RCS size: LARGE

Orbital parameters

Period: 109.463 minutes

Inclination: 100.7384 deg

SMA: 7580.022 km

Apoapsis: 1206.682 km

Periapsis: 1197.091 km

RAAN: 78.5412 deg

Eccentricy: 0.00063268

Argument of periapsis: 9.4792 deg

Mean anomaly: 350.6438 deg

Mean motion: 13.15518898 rev/day

Mean motion (dot): -0.0000002 rev/day2

B* drag term: 0.000070884066 1/REarth

Two-line elements (TLE)

Creation date: Oct. 23, 2025, 2:46 a.m.

Reference frame: TEME

Reference center: EARTH

Epoch: Oct. 22, 2025, 7:54 p.m. UTC

TLE line 0: 0 YAOGAN 22

TLE line 1: 1 40275U 14063A 25295.82947782 -.00000020 00000-0 70884-4 0 9996

TLE line 2: 2 40275 100.7384 78.5412 0006327 9.4792 350.6438 13.15518898528608

Live tracking on map

Real-time ground track for satellite YAOGAN 22.

In-orbit conjunctions

There are no conjunctions computed for YAOGAN 22, at the moment. Check back to stay up to date, as we update our databases every day.

Go to all conjunctions

Associated space launch

YAOGAN 22 was lifted into orbit during the mission ‘Long March 4C | Yaogan-22’, on board a Long March 4C space rocket.

The launch took place on Oct. 20, 2014, 6:31 a.m. from Launch Complex 9.

For more information about the launch, click the button.

Launch to space Long March 4C | Yaogan-22
Long March 4C | Yaogan-22

Agency: N/A

Status: Launch Successful

Launch date: Oct. 20, 2014, 6:31 a.m. UTC

Rocket: Long March 4C

Launch pad: Launch Complex 9

Location: Taiyuan Satellite Launch Center, People's Republic of China

...

Latest news about this satellite

There are no fresh news available about this satellite. Check back as we update our databases every day.


Newsletter sign-up

Weekly statistics, charts and insights to help you stay on top of the space industry.